TimeMDT,TemperatureF,Dew PointF,Humidity,Sea Level PressureIn,VisibilityMPH,Wind Direction,Wind SpeedMPH,Gust SpeedMPH,PrecipitationIn,Events,Conditions,WindDirDegrees,DateUTC
12:15 AM,62.6,59.0,88,30.12,10.0,Calm,Calm,-,N/A,,Clear,0,2013-08-28 06:15:00
12:35 AM,62.6,59.0,88,30.12,10.0,South,5.8,-,N/A,,Clear,170,2013-08-28 06:35:00
12:55 AM,62.6,59.0,88,30.12,10.0,South,3.5,-,N/A,,Clear,170,2013-08-28 06:55:00
1:15 AM,60.8,57.2,88,30.12,10.0,South,5.8,-,N/A,,Clear,180,2013-08-28 07:15:00
1:35 AM,60.8,59.0,94,30.12,10.0,Calm,Calm,-,N/A,,Clear,0,2013-08-28 07:35:00
1:55 AM,60.8,57.2,88,30.12,10.0,South,5.8,-,N/A,,Clear,180,2013-08-28 07:55:00
2:15 AM,60.8,57.2,88,30.12,10.0,South,3.5,-,N/A,,Clear,170,2013-08-28 08:15:00
2:35 AM,60.8,57.2,88,30.12,10.0,Calm,Calm,-,N/A,,Clear,0,2013-08-28 08:35:00
2:55 AM,60.8,57.2,88,30.11,10.0,Calm,Calm,-,N/A,,Clear,0,2013-08-28 08:55:00
3:15 AM,60.8,59.0,94,30.12,10.0,Calm,Calm,-,N/A,,Clear,0,2013-08-28 09:15:00
3:35 AM,60.8,59.0,94,30.12,10.0,Calm,Calm,-,N/A,,Clear,0,2013-08-28 09:35:00
3:55 AM,60.8,59.0,94,30.11,10.0,Calm,Calm,-,N/A,,Clear,0,2013-08-28 09:55:00
4:15 AM,60.8,57.2,88,30.11,10.0,South,4.6,-,N/A,,Clear,180,2013-08-28 10:15:00
4:35 AM,60.8,57.2,88,30.11,10.0,Calm,Calm,-,N/A,,Clear,0,2013-08-28 10:35:00
4:55 AM,60.8,55.4,82,30.12,10.0,Calm,Calm,-,N/A,,Clear,0,2013-08-28 10:55:00
5:15 AM,59.0,57.2,94,30.12,10.0,North,4.6,-,N/A,,Clear,360,2013-08-28 11:15:00
5:35 AM,60.8,55.4,82,30.12,10.0,NW,3.5,-,N/A,,Clear,320,2013-08-28 11:35:00
5:55 AM,60.8,57.2,88,30.12,10.0,NW,4.6,-,N/A,,Clear,320,2013-08-28 11:55:00
6:15 AM,60.8,57.2,88,30.12,10.0,West,3.5,-,N/A,,Clear,260,2013-08-28 12:15:00
6:35 AM,59.0,57.2,94,30.13,10.0,North,3.5,-,N/A,,Clear,360,2013-08-28 12:35:00
6:50 AM,59.0,55.4,88,30.13,15.0,SE,3.5,-,N/A,,Scattered Clouds,130,2013-08-28 12:50:00
6:55 AM,60.8,57.2,88,30.14,10.0,SE,4.6,-,N/A,,Clear,140,2013-08-28 12:55:00
7:50 AM,62.6,57.2,82,30.16,15.0,Variable,4.6,-,N/A,,Scattered Clouds,0,2013-08-28 13:50:00
8:50 AM,66.2,59.0,78,30.16,15.0,Variable,4.6,-,N/A,,Scattered Clouds,0,2013-08-28 14:50:00
9:50 AM,69.8,57.2,64,30.17,15.0,Variable,4.6,-,N/A,,Scattered Clouds,0,2013-08-28 15:50:00
10:50 AM,73.4,60.8,65,30.18,15.0,Variable,4.6,-,N/A,,Partly Cloudy,0,2013-08-28 16:50:00
11:50 AM,75.2,62.6,65,30.18,15.0,Variable,4.6,-,N/A,,Partly Cloudy,0,2013-08-28 17:50:00
12:50 PM,75.2,62.6,65,30.16,15.0,Variable,5.8,-,N/A,,Scattered Clouds,0,2013-08-28 18:50:00
2:50 PM,84.2,55.4,37,30.11,15.0,Variable,5.8,-,N/A,,Scattered Clouds,0,2013-08-28 20:50:00
3:50 PM,87.8,51.8,29,30.09,15.0,Variable,5.8,-,N/A,,Scattered Clouds,0,2013-08-28 21:50:00
4:47 PM,87.8,50.0,27,30.08,15.0,Variable,4.6,-,N/A,,Scattered Clouds,0,2013-08-28 22:47:00
5:55 PM,87.8,48.2,25,30.07,15.0,Variable,4.6,-,N/A,,Scattered Clouds,0,2013-08-28 23:55:00
6:58 PM,87.8,48.2,25,30.07,15.0,Variable,4.6,-,N/A,,Scattered Clouds,0,2013-08-29 00:58:00
7:47 PM,77.0,55.4,47,30.11,15.0,SSE,17.3,27.6,N/A,,Scattered Clouds,150,2013-08-29 01:47:00
8:47 PM,75.2,55.4,50,30.11,15.0,SSE,16.1,-,N/A,,Scattered Clouds,150,2013-08-29 02:47:00
9:15 PM,75.2,55.4,50,30.13,10.0,East,8.1,19.6,N/A,,Clear,80,2013-08-29 03:15:00
9:35 PM,73.4,55.4,53,30.13,10.0,SE,11.5,-,N/A,,Clear,140,2013-08-29 03:35:00
9:55 PM,73.4,55.4,53,30.14,10.0,ESE,15.0,19.6,N/A,,Clear,120,2013-08-29 03:55:00
10:15 PM,75.2,53.6,47,30.15,10.0,ESE,11.5,20.7,N/A,,Clear,120,2013-08-29 04:15:00
10:35 PM,73.4,53.6,50,30.15,10.0,SSE,11.5,-,N/A,,Clear,150,2013-08-29 04:35:00
10:55 PM,71.6,55.4,57,30.16,10.0,SE,4.6,-,N/A,,Clear,130,2013-08-29 04:55:00
11:15 PM,69.8,55.4,60,30.15,10.0,SSE,5.8,-,N/A,,Clear,150,2013-08-29 05:15:00
11:35 PM,68.0,57.2,68,30.15,10.0,ENE,3.5,-,N/A,,Clear,60,2013-08-29 05:35:00
11:55 PM,66.2,55.4,68,30.16,10.0,SE,5.8,-,N/A,,Clear,140,2013-08-29 05:55:00